This demonstration page uses our WeatherBlox Daily Observations layout. Learn more.

Left ArrowRight Arrow

31.84235, -102.49876

Hourly Observations for May 10, 2017

Temp ( °F °C ) Dew Point ( °F °C ) Humidity (%) Winds ( mph kmh ) Pressure ( in mb ) Visibility ( mi km ) Precip ( " mm )
12:32 am 00:32 Mostly Cloudy 74 23.3 62 16.7 67 67 SSE 17 28 29.68 1005 9 14 0.00 0.00
12:53 am 00:53 Cloudy 73 22.8 63 17.2 71 71 SSE 18 30 29.68 1005 9 14 0.00 0.00
1:53 am 01:53 Mostly Cloudy 72 22.2 64 17.8 76 76 S 25 41 29.66 1004 9 14 0.00 0.00
2:36 am 02:36 Partly Cloudy 73 22.8 64 17.8 74 74 S 22 35 29.62 1003 8 13 0.00 0.00
2:53 am 02:53 Mostly Clear 72 22.2 64 17.8 76 76 S 28 44 29.64 1004 9 14 0.00 0.00
3:18 am 03:18 Mostly Cloudy 73 22.8 64 17.8 74 74 SSW 20 31 29.65 1004 9 14 0.00 0.00
3:53 am 03:53 Cloudy 73 22.8 63 17.2 71 71 SSW 17 28 29.68 1005 10 16 0.00 0.00
4:17 am 04:17 Cloudy with Nearby Thunderstorms 72 22.2 65 18.3 79 79 S 23 37 29.71 1006 8 13 0.00 0.03
4:26 am 04:26 Cloudy with Nearby Thunderstorms 71 21.7 65 18.3 81 81 SSW 20 31 29.71 1006 7 11 0.01 0.25
4:36 am 04:36 Windy with Storms Likely 71 21.7 65 18.3 81 81 S 22 35 29.71 1006 8 13 0.01 0.25
4:49 am 04:49 Cloudy with Thunderstorms 70 21 66 19 88 88 S 17 28 29.71 1006 3 4 0.12 3.05
4:51 am 04:51 Cloudy with Light Rain 70 21 66 19 88 88 S 20 31 29.71 1006 3 5 0.12 3.05
4:53 am 04:53 Cloudy with Light Rain 70 21.1 66 18.9 87 87 S 16 26 29.69 1005 5 8 0.12 3.05
5:14 am 05:14 Mostly Cloudy with Nearby Thunderstorms 69 20.6 64 17.8 84 84 SW 14 22 29.71 1006 9 14 0.00 0.03
5:28 am 05:28 Cloudy with Nearby Thunderstorms 68 20 65 18.3 90 90 SW 14 22 29.74 1007 2 3 0.18 4.57
5:30 am 05:30 Cloudy with Heavy Rain 68 20 65 18.3 90 90 SW 14 22 29.74 1007 2 3 0.18 4.57
5:34 am 05:34 Cloudy with Thunderstorms 68 20 65 18.3 90 90 SSW 15 24 29.74 1007 3 5 0.18 4.57
5:53 am 05:53 Mostly Cloudy with Thunderstorms 68 20 61 16.1 78 78 SSW 14 22 29.70 1006 10 16 0.18 4.57
6:18 am 06:18 Clear 65 18.3 54 12.2 68 68 SSW 9 15 29.74 1007 10 16 0.00 0.03
6:53 am 06:53 Clear 64 17.8 51 10.6 63 63 WSW 8 13 29.74 1007 10 16 0.00 0.03
7:53 am 07:53 Sunny 64 17.8 50 10 60 60 WSW 8 13 29.76 1008 10 16 0.00 0.00
8:53 am 08:53 Sunny 67 19.4 55 12.8 66 66 WNW 15 24 29.78 1009 10 16 0.00 0.00
9:53 am 09:53 Sunny 72 22.2 46 7.8 40 40 NW 17 28 29.80 1009 10 16 0.00 0.00
10:53 am 10:53 Sunny 76 24.4 44 6.7 32 32 WNW 17 28 29.79 1009 10 16 0.00 0.00
11:53 am 11:53 Sunny 77 25 41 5 28 28 W 14 22 29.80 1009 10 16 0.00 0.00
12:53 pm 12:53 Sunny 79 26.1 34 1.1 20 20 W 9 15 29.78 1009 10 16 0.00 0.00
1:53 pm 13:53 Sunny 82 27.8 30 -1.1 15 15 W 16 26 29.77 1008 10 16 0.00 0.00
2:53 pm 14:53 Sunny 83 28.3 30 -1.1 15 15 W 18 30 29.75 1008 10 16 0.00 0.00
3:53 pm 15:53 Sunny 84 28.9 30 -1.1 14 14 W 12 19 29.74 1007 10 16 0.00 0.00
4:53 pm 16:53 Sunny 84 28.9 26 -3.3 12 12 WSW 15 24 29.73 1007 10 16 0.00 0.00
5:53 pm 17:53 Sunny 84 28.9 27 -2.8 12 12 SW 12 19 29.72 1007 10 16 0.00 0.00
6:53 pm 18:53 Sunny 84 28.9 26 -3.3 12 12 WSW 13 20 29.74 1007 10 16 0.00 0.00
7:53 pm 19:53 Sunny 81 27.2 27 -2.8 14 14 W 18 30 29.76 1008 10 16 0.00 0.00
8:53 pm 20:53 Clear 75 23.9 31 -0.6 20 20 NW 13 20 29.79 1009 10 16 0.00 0.00
9:53 pm 21:53 Clear 72 22.2 26 -3.3 18 18 NW 15 24 29.80 1009 10 16 0.00 0.00
10:53 pm 22:53 Clear 68 20 27 -2.8 21 21 WNW 12 19 29.84 1011 10 16 0.00 0.00
11:53 pm 23:53 Clear 67 19.4 27 -2.8 22 22 NW 8 13 29.85 1011 10 16 0.00 0.00

Powered by AerisWeather